Tracking 29892 objects as of 21-Nov-2024
HD Live streaming from Space Station
objects crossing your sky now

FENGYUN 1C DEB

Track FENGYUN 1C DEB now!
10-day predictions


NORAD ID: 31503
Int'l Code: 1999-025BWS
Perigee: 794.7 km
Apogee: 870.3 km
Inclination: 100.1 °
Period: 101.4 minutes
Semi major axis: 7203 km
RCS: 0.0107 m2 (small)
Launch date: May 10, 1999
Source: People's Republic of China (PRC)
Launch site: Taiyaun Space Center, China (TSC)

Note: This is SATELLITE DEBRIS
Your satellite tracking list
Your tracking list is empty




NASA's NSSDC Master Catalog

Two Line Element Set (TLE):
1 31503U 99025BWS 24320.72084786  .00006290  00000-0  29404-2 0  9998
2 31503 100.1135 124.2094 0052494 189.3724 170.6473 14.19987598586777
Source of the keplerian elements: AFSPC